Simultaneous Nadir Overpasses (SNOs) Predictions

Prediction of SNOs between GOES-15 and LANDSAT-8 Satellite Orbit:

Table of predicted SNOs for the next 14.0 days since TLE Epoch: 3/12/2022
Index Date Time (GOES-15) GOES-15 Lat,Lon LANDSAT-8 Lat,Lon Distance(km) Time Diff (sec)
1 03/12/2022 18:33:10 -0.02,-127.88 -0.64,-124.99 329.62 80
2 03/13/2022 06:51:54 0.03,-127.89 -0.47,-130.18 260.00 80
3 03/15/2022 06:42:22 0.03,-127.96 0.19,-127.23 83.61 80
4 03/17/2022 06:30:10 0.02,-128.03 0.85,-124.28 427.06 80
5 03/17/2022 18:48:45 -0.03,-128.05 0.26,-129.43 156.73 80
6 03/19/2022 18:39:12 -0.03,-128.11 -0.35,-126.47 186.33 80
7 03/20/2022 06:57:56 0.03,-128.12 -0.74,-131.66 403.39 80
8 03/22/2022 06:45:44 0.03,-128.17 -0.06,-128.71 61.32 80
9 03/24/2022 06:36:11 0.04,-128.21 0.57,-125.75 279.84 80
10 03/24/2022 18:54:46 -0.04,-128.23 0.54,-130.91 304.89 80
